Regional Weather Roundup
Issued by NWS

Home | Current Version | Previous Version | Text Only | Print | Product List | Glossary On
Versions: 1 2 3 4 5 6 7 8 9 10 11 12 13 14 15 16 17 18 19 20 21 22 23 24 25 26 27 28 29 30 31 32 33 34 35 36 37 38 39 40 41 42 43 44 45 46 47 48 49 50
000
ASUS43 KDMX 281406
RWRIA

WEATHER ROUNDUP FOR IOWA
NATIONAL WEATHER SERVICE DES MOINES IA
900 AM CDT FRI JUL 28 2017

NOTE: "FAIR" INDICATES FEW OR NO CLOUDS BELOW 12,000 FEET WITH NO
SIGNIFICANT WEATHER AND/OR OBSTRUCTIONS TO VISIBILITY.

* - THESE STATIONS ARE NOT NWS STATIONS...THUS NOT UNDER NWS
QUALITY CONTROL.  THEY ALSO DO NOT REPORT WEATHER SUCH
AS PRECIPITATION OR FOG.

IAZ001>003-012>014-020>022-031>034-043>046-281500-
   NORTHWEST IOWA

CITY           SKY/WX    TMP DP  RH WIND       PRES   REMARKS
CARROLL *      PTSUNNY   68  64  88 CALM      30.08R
CHEROKEE *     CLOUDY    69  66  89 CALM      30.09R
DENISON *      PTSUNNY   70  66  88 NE3       30.09S
ORANGE CITY *  CLOUDY    70  64  83 E5        30.10S
SHELDON *      CLOUDY    72  64  78 VRB3      30.09S
SIOUX CITY     PTSUNNY   71  64  78 E3        30.08S
SPENCER        CLOUDY    73  63  70 VRB3      30.10R
STORM LAKE *   PTSUNNY   72  64  78 NE5       30.10R
$$

IAZ055>058-069>071-079>083-090>094-281500-
   SOUTHWEST IOWA

CITY           SKY/WX    TMP DP  RH WIND       PRES   REMARKS
ATLANTIC *     CLOUDY    68  66  94 CALM      30.07S
AUDUBON *      MOSUNNY   70  66  88 CALM      30.08S
CLARINDA *     SUNNY     70  66  88 NE5       30.08R
COUNCIL BLFS * CLOUDY    70  70 100 NE5       30.07S
CRESTON *      MOSUNNY   72  66  83 NE7       30.08R
HARLAN  *      CLOUDY    68  68 100 CALM      30.11S
LAMONI         SUNNY     74  65  73 VRB3      30.05R
RED OAK *      SUNNY     70  66  88 N6        30.07R
SHENANDOAH *   SUNNY     72  66  83 MISG      30.06R
$$

IAZ047>049-059>061-072>074-084-281500-
   CENTRAL IOWA

CITY           SKY/WX    TMP DP  RH WIND       PRES   REMARKS
AMES           SUNNY     73  66  78 E3        30.06R
ANKENY *       MOSUNNY   73  63  68 CALM      30.07S
BOONE *        CLOUDY    72  64  78 E6        30.06S
CHARITON *     SUNNY     72  64  78 NE3       30.05R
DES MOINES     PTSUNNY   74  62  66 E5        30.05R
GRINNELL*      SUNNY     71  61  71 E6        30.07R
KNOXVILLE *    SUNNY     72  59  64 E7        30.04S
MARSHALLTOWN   SUNNY     72  66  81 CALM      30.06R
NEWTON *       SUNNY     73  61  64 SE5       30.06R
PELLA *        SUNNY     74  56  54 E5        30.06S
PERRY *          N/A     71  67  89 CALM      30.07R
$$

IAZ004>006-015-016-023>025-035-036-281500-
   NORTH CENTRAL IOWA

CITY           SKY/WX    TMP DP  RH WIND       PRES   REMARKS
ALGONA *       MOSUNNY   70  66  88 NE6       30.09S
ESTHERVILLE    MOSUNNY   69  65  86 N6        30.09S
FORT DODGE *   SUNNY     72  63  73 E3        30.08F
MASON CITY     SUNNY     71  64  78 NE5       30.09S
FOREST CITY *    N/A     72  63  73 CALM      30.09R
WEBSTER CITY * SUNNY     72  64  78 CALM      30.05S
IOWA FALLS *     N/A     72  65  80 E5        30.08S
$$

IAZ007>011-017>019-026>030-037>042-050>054-066-281500-
   NORTHEAST IOWA

CITY           SKY/WX    TMP DP  RH WIND       PRES   REMARKS
CEDAR RAPIDS   SUNNY     72  59  64 E12       30.05R
CHARLES CITY * SUNNY     72  64  78 SE6       30.09R
DECORAH *      SUNNY     70  64  83 E7        30.08R
DUBUQUE        SUNNY     66  59  78 NE12      30.06R
MONTICELLO *   SUNNY     70  59  68 NE8       30.05R
OELWEIN *      SUNNY     70  63  78 E8        30.08R
WATERLOO       SUNNY     71  60  68 E6        30.06R
$$

IAZ064-065-067-068-078-281500-
   EAST CENTRAL IOWA

CITY           SKY/WX    TMP DP  RH WIND       PRES   REMARKS
DAVENPORT      SUNNY     69  59  70 NE13      30.05R
IOWA CITY      SUNNY     74  58  57 NE10      30.05R
MT. PLEASANT * SUNNY     71  61  70 NE7       30.02S
MUSCATINE *    SUNNY     72  59  64 NE10      30.03S
QUAD CITIES    SUNNY     72  58  61 NE10      30.02R
$$

IAZ062-063-075>077-085>089-095>099-281500-
   SOUTHEAST IOWA

CITY           SKY/WX    TMP DP  RH WIND       PRES   REMARKS
BURLINGTON     SUNNY     71  61  70 NE13      30.00S
FAIRFIELD *    SUNNY     72  57  60 NE9       30.03R
FORT MADISON * SUNNY     70  63  78 NE8       30.01S
KEOKUK *       SUNNY     73  61  64 NE8G15    30.00S
OSKALOOSA *      N/A     73  58  59 E8        30.05S
CENTERVILLE *    N/A     73  63  68 NE3       30.05S
OTTUMWA        SUNNY     74  56  53 E10       30.04R
WASHINGTON *   SUNNY     72  63  73 NE9       30.04
$$

ABBREVIATIONS USED IN REMARKS
   TC - TEMPERATURES IN CELSIUS
  WCI - WIND CHILL INDEX
   HX - HEAT INDEX
  VSB - VISIBILITY
$$




USA.gov is the U.S. government's official web portal to all federal, state and local government web resources and services.